Theta_e
303 303 302 301 301 302 302 302 302 302 300 301 302 302 301 301 301 298 299 300 300 299 299 300 304 304 302 304 304 303 305 305 306 307 310 312 316 318 317 319 318 320 316 314 313 314 315
302 301 300 301 302 301 301 302 301 302 301 301 302 301 301 300 298 297 299 299 302 300 299 300 300 302 304 304 303 304 304 305 305 305 306 308 312 318 317 320 321 317 317 317 315 314 315
301 302 302 302 302 302 302 301 301 301 300 301 301 300 298 296 295 297 301 302 302 300 301 299 300 303 304 304 305 305 305 305 305 305 305 306 308 311 315 320 323 322 319 317 316 315 314
302 303 303 303 303 303 303 303 302 302 301 299 300 298 296 294 296 301 303 303 302 301 302 301 299 304 305 306 305 304 305 305 305 305 304 304 305 308 313 317 323 327 327 321 317 315 313
303 303 302 302 302 301 301 302 303 302 300 299 297 296 295 294 299 303 304 304 304 302 302 303 305 306 307 305 305 304 305 305 304 305 305 305 305 308 311 315 325 326 331 328 320 314 313
301 302 303 303 303 303 303 302 303 303 301 299 296 294 294 295 302 303 304 304 304 304 306 305 306 306 305 304 305 304 306 306 307 305 304 304 303 308 312 317 328 328 328 326 324 315 313
302 301 302 303 303 303 304 304 303 302 301 299 297 294 294 295 303 304 304 303 302 305 303 305 305 305 304 305 304 304 306 306 307 305 304 304 303 306 310 314 323 323 325 324 323 317 313
301 300 301 302 302 303 303 303 303 303 301 299 297 294 294 295 303 305 304 303 302 302 301 303 304 305 305 304 302 304 305 306 307 309 307 305 304 304 306 314 316 321 324 322 321 320 319
300 300 300 301 302 302 302 303 302 302 301 299 297 294 294 296 303 305 304 304 303 303 303 307 305 303 302 302 301 304 305 305 306 309 309 309 306 306 305 310 316 318 321 320 321 320 319
300 300 300 299 301 301 301 301 302 302 300 299 296 293 294 299 303 305 304 304 305 305 306 301 301 301 301 301 301 305 306 306 307 309 309 309 309 309 307 306 312 319 318 319 320 320 322
300 300 300 299 300 300 301 300 301 301 300 299 296 293 294 297 301 306 304 304 305 306 296 301 301 302 301 300 300 305 306 307 308 309 308 310 310 312 311 307 308 313 315 317 318 319 320
300 300 300 298 300 300 300 302 301 300 299 297 295 293 293 301 303 305 304 306 307 304 293 303 301 301 301 301 302 303 305 304 306 307 306 308 308 309 310 311 308 310 312 315 316 320 325
299 299 299 298 300 300 300 300 300 299 298 296 295 293 293 298 304 304 304 307 303 292 301 301 300 301 301 301 301 303 303 301 302 303 304 307 309 307 310 313 311 308 313 321 319 325 326
299 299 299 298 299 300 299 300 299 298 297 296 294 293 297 301 304 301 305 305 295 302 303 300 300 301 301 301 301 302 303 301 301 301 304 308 311 308 309 312 313 315 313 323 323 323 323
299 299 298 299 299 299 299 299 299 297 296 296 294 300 301 304 305 301 304 301 296 304 301 299 300 301 301 301 302 302 303 301 301 301 304 308 308 309 308 308 310 316 316 315 320 320 323
298 299 299 299 298 298 298 299 298 297 296 295 295 301 305 305 300 304 303 300 302 302 300 300 301 301 301 301 302 303 303 303 302 301 302 304 307 307 307 308 311 314 316 317 320 320 322
297 298 298 298 297 299 298 298 298 296 297 296 299 301 305 300 304 304 306 302 305 302 301 301 301 301 302 301 302 302 302 303 303 301 302 301 304 306 307 310 314 311 311 313 318 319 325
297 297 298 299 298 299 298 298 297 297 297 296 302 299 305 300 305 297 298 305 301 301 301 302 301 302 302 301 304 303 303 303 304 302 303 301 304 306 311 305 305 309 311 310 304 307 312
296 297 297 297 299 299 298 297 297 297 297 300 301 302 303 302 303 298 303 301 301 300 301 301 301 301 301 303 301 302 302 302 304 303 301 303 302 305 305 304 303 304 309 310 310 308 312
296 296 297 297 298 298 298 297 297 297 297 296 300 294 295 299 303 305 305 303 302 302 301 300 301 301 301 302 302 300 303 303 303 303 307 305 305 304 305 303 303 303 302 306 309 306 309
296 296 296 297 298 298 298 297 297 297 297 298 297 297 297 297 298 304 304 303 301 302 302 301 301 301 301 299 301 303 302 302 301 302 300 303 303 303 302 302 302 302 302 302 303 307 306
296 296 296 296 297 298 298 298 297 297 297 299 294 298 302 299 303 302 303 300 302 301 302 302 301 302 301 301 301 299 301 300 300 299 300 300 299 301 296 302 303 302 302 301 302 302 302
296 296 296 296 296 298 298 298 297 297 297 299 303 302 299 302 302 301 301 303 303 303 301 301 300 300 300 301 300 299 299 299 300 300 298 298 297 298 298 302 302 297 302 302 302 302 302
296 296 296 295 296 297 298 297 297 297 296 301 302 301 299 297 300 301 303 303 302 301 301 301 300 299 300 299 298 299 299 300 300 299 299 298 299 296 294 301 293 299 302 303 303 305 305
296 296 296 296 295 297 298 297 296 297 297 298 301 300 298 296 301 301 303 303 302 301 301 300 300 301 298 298 296 294 292 296 293 299 300 298 297 294 295 297 301 302 304 303 303 304 304
297 296 296 296 295 296 297 298 296 296 297 297 300 301 300 297 296 301 301 301 299 299 299 302 301 299 299 295 295 292 292 295 298 300 301 301 300 296 291 301 304 304 304 304 304 304 301
297 296 296 296 295 295 296 297 297 296 296 297 299 300 299 298 297 299 298 299 300 300 298 300 301 300 300 292 290 291 296 301 301 300 299 299 294 293 290 292 300 301 302 301 304 302 300
297 296 296 296 296 295 295 297 297 297 296 296 299 299 299 295 296 299 299 298 298 297 296 299 297 296 294 292 293 294 296 299 301 300 301 300 299 296 294 290 295 302 301 302 301 300 301
297 297 296 296 295 295 295 296 296 296 296 296 298 298 299 299 298 298 298 298 298 298 297 298 299 299 298 294 293 293 297 296 300 297 299 298 299 303 301 299 299 299 300 299 299 298 299
Wind_Speed
4 4 4 5 6 6 7 7 8 8 9 10 11 12 13 14 15 17 18 19 19 17 16 15 14 11 8 2 8 18 22 20 20 15 15 11 13 13 16 7 13 20 27 18 16 19 23
3 2 3 4 5 6 6 6 7 8 9 10 11 12 14 15 17 19 19 19 18 15 13 12 10 7 3 5 12 26 27 24 22 24 23 18 11 11 15 17 20 11 16 18 17 20 21
1 2 3 4 4 5 5 6 7 9 10 10 11 13 15 17 19 19 20 17 16 12 11 9 5 1 4 9 15 19 22 21 27 22 18 26 24 14 11 17 22 24 23 20 19 19 20
3 5 4 5 5 6 6 7 9 9 10 10 11 14 16 18 21 19 21 20 11 7 8 6 2 4 5 12 11 11 17 23 24 22 28 30 29 20 15 10 11 20 21 18 24 20 22
3 4 6 6 6 7 7 7 8 9 10 11 12 14 17 19 19 20 25 18 10 9 10 6 4 5 7 11 15 16 17 16 23 26 29 23 21 17 14 11 9 12 16 21 22 21 17
6 5 5 6 7 8 8 8 8 10 10 10 12 14 17 19 16 20 28 10 2 3 7 8 14 3 5 13 20 22 13 20 12 15 15 13 7 14 11 10 16 16 18 15 21 17 19
5 6 7 7 8 8 9 9 9 10 10 10 11 13 15 16 14 18 26 6 7 3 6 4 9 9 13 19 21 11 10 13 12 9 13 14 9 16 16 16 16 13 18 17 18 12 21
6 9 8 8 9 9 9 10 9 10 9 9 10 12 14 14 11 13 14 6 3 2 6 8 13 14 20 10 13 4 5 7 4 9 15 14 15 17 16 15 17 18 20 20 20 17 21
7 10 9 9 9 9 10 10 10 9 8 8 10 11 14 14 9 5 16 8 4 2 2 9 7 4 7 11 10 5 6 6 12 5 16 14 13 16 19 19 18 20 21 18 19 17 19
8 9 10 9 9 10 11 10 9 8 7 7 9 10 13 16 4 15 10 10 1 2 3 10 8 3 7 6 4 4 9 9 4 6 9 12 16 17 18 20 20 20 20 20 21 18 13
10 10 10 9 9 10 10 10 8 7 6 7 7 9 11 10 7 6 10 10 1 1 5 12 9 16 7 10 10 7 9 4 13 11 4 8 12 14 13 17 21 21 17 20 16 14 4
12 11 10 9 9 9 8 6 5 5 5 6 7 8 10 7 6 7 11 6 3 3 2 5 11 16 8 10 7 8 5 9 5 6 8 19 15 16 15 14 15 22 18 19 16 5 7
13 12 10 9 9 8 6 4 4 4 5 6 7 7 8 6 3 12 10 4 4 6 5 7 14 16 8 11 12 6 13 17 17 16 21 10 13 16 17 9 11 12 6 3 6 4 5
14 13 11 10 8 7 5 4 4 5 5 6 7 9 5 7 7 11 8 4 6 4 4 10 11 10 5 12 10 14 6 12 9 11 10 10 6 12 12 11 10 15 14 5 8 6 3
16 14 14 11 8 6 5 5 5 5 5 6 8 6 5 4 4 6 4 3 5 3 8 9 13 6 6 9 8 11 5 11 10 15 12 7 6 2 12 14 7 5 2 14 1 8 2
20 16 15 13 9 8 6 7 6 5 4 5 5 5 3 5 3 2 3 1 2 4 5 6 5 6 10 11 8 8 9 10 10 12 9 10 7 7 12 13 7 5 8 1 4 4 3
21 19 18 15 12 10 9 8 8 6 4 5 2 1 3 1 2 3 2 5 5 5 4 4 6 6 10 8 8 8 10 6 10 9 9 6 3 10 7 7 10 9 5 6 3 4 2
25 23 21 16 14 11 10 10 9 7 5 5 4 2 6 3 3 1 1 4 2 5 0 7 5 6 7 8 6 7 10 8 12 11 7 5 3 8 12 6 11 5 6 4 2 4 2
27 25 23 20 15 14 12 12 11 9 7 2 2 2 2 1 2 1 4 3 2 5 8 4 4 5 6 5 4 5 7 12 14 6 6 7 5 4 9 4 11 8 2 3 4 2 1
27 27 24 22 18 16 14 13 13 11 9 4 2 1 3 3 2 4 4 4 3 5 7 5 5 6 6 3 2 6 7 10 11 7 12 5 2 5 4 8 11 10 11 4 3 3 2
31 29 27 24 22 18 15 15 14 13 11 6 2 4 5 2 3 4 4 7 5 3 5 2 4 6 7 4 4 2 8 8 11 11 9 2 1 4 9 12 14 15 14 12 4 6 4
33 30 28 26 25 21 18 16 15 15 13 5 4 3 3 2 4 7 4 2 3 8 5 5 5 7 5 3 5 4 6 6 3 6 7 5 3 7 6 11 12 17 14 9 9 8 9
33 31 30 29 27 23 21 18 18 18 16 7 5 7 4 5 3 3 6 7 8 6 4 4 6 4 4 5 5 6 5 5 7 7 5 3 1 4 5 10 14 7 3 3 5 7 4
34 33 31 30 29 26 22 22 20 21 23 2 3 2 2 3 3 4 5 7 5 4 4 3 4 4 3 6 5 5 7 9 8 10 6 4 2 2 4 5 4 7 14 11 5 11 12
35 34 31 30 28 28 24 24 22 22 22 16 3 1 1 2 3 7 8 7 3 3 3 5 8 2 4 5 4 6 5 6 5 6 7 6 3 2 2 2 8 9 3 13 12 5 12
38 35 33 31 30 30 26 25 23 21 20 20 10 5 2 3 4 6 6 5 4 3 4 5 4 10 5 3 3 1 2 4 4 3 10 9 5 4 3 1 3 0 5 11 7 1 14
39 36 34 32 30 31 28 26 24 22 20 19 7 11 2 2 4 1 2 1 3 3 1 2 2 3 4 2 1 2 4 4 2 3 2 1 2 4 2 3 6 6 10 11 3 5 19
40 37 35 33 32 30 30 25 24 23 22 19 10 13 7 2 5 4 5 3 4 1 3 3 4 3 2 2 2 4 2 3 3 3 4 2 3 4 1 2 6 12 10 2 8 11 7
40 38 37 34 32 30 30 26 25 22 20 19 4 11 15 3 4 11 10 12 10 7 1 2 4 0 3 2 2 2 2 3 3 3 2 3 3 2 5 4 10 13 9 7 7 8 11
Wind_Direction
79 68 54 42 39 36 30 19 12 11 8 10 5 359 353 348 342 340 338 338 330 326 326 326 321 325 354 331 254 307 333 328 331 314 295 291 286 224 240 247 244 258 244 243 257 265 272
70 34 26 26 32 29 20 9 1 0 1 1 358 352 348 344 342 342 339 337 338 332 331 334 330 329 269 288 299 326 334 331 326 316 307 293 275 250 261 248 245 250 261 252 239 241 254
23 350 356 358 3 8 0 0 353 354 351 350 350 348 346 344 344 345 342 340 336 338 344 343 335 293 256 259 306 319 316 308 310 280 278 281 280 285 330 257 241 244 257 266 251 240 244
311 307 318 332 333 333 334 332 336 339 342 342 345 346 346 347 349 349 344 342 321 297 305 323 279 217 249 295 300 297 306 310 304 294 261 267 278 283 273 274 289 251 244 247 244 243 240
292 311 315 318 324 327 326 325 327 321 331 339 342 343 347 351 355 352 346 341 305 269 274 284 261 206 275 314 309 315 306 304 285 290 296 292 249 258 270 271 251 243 240 233 248 232 238
292 306 310 313 313 311 310 310 311 310 324 332 339 343 349 354 360 351 351 7 312 284 320 242 269 269 255 311 305 320 332 315 325 263 277 283 271 239 237 230 222 219 229 240 240 231 235
286 294 302 307 307 306 310 307 301 304 315 327 334 340 347 353 356 360 7 14 11 11 25 286 288 276 276 287 299 310 355 6 339 278 252 261 255 231 224 242 257 252 239 246 246 242 222
273 288 297 304 305 303 304 301 299 298 309 321 326 335 344 347 345 3 45 73 114 260 322 272 257 265 272 274 298 1 334 305 255 307 297 246 249 243 233 251 252 261 261 254 267 241 252
266 287 295 302 303 303 299 294 290 289 301 309 320 332 340 342 335 14 51 93 132 92 269 296 252 273 301 313 302 357 5 301 310 304 292 287 255 248 232 226 249 252 258 260 266 259 258
263 278 292 299 303 300 300 293 283 278 285 301 316 330 340 344 335 340 52 19 292 15 8 353 2 302 303 300 323 40 14 323 318 253 286 264 267 259 236 229 226 248 259 260 271 263 262
259 273 284 295 300 304 303 295 268 263 272 293 312 330 338 328 316 7 358 342 63 283 57 311 351 311 319 7 349 16 30 300 337 325 4 276 312 303 277 234 222 246 248 264 271 274 334
254 263 278 289 297 304 303 294 252 251 269 293 309 327 339 19 307 354 330 335 274 35 278 319 349 323 11 3 24 347 33 8 316 319 353 284 264 278 274 294 252 226 239 274 249 270 281
253 254 269 280 290 294 291 269 247 255 278 295 306 313 316 305 290 325 344 312 28 96 302 347 331 321 18 11 357 6 10 11 18 355 346 343 29 346 18 315 285 216 99 282 252 189 226
245 247 257 269 277 281 265 247 246 261 281 297 303 303 301 242 298 338 339 48 71 261 294 350 326 328 354 17 353 349 40 18 9 6 340 349 354 358 338 326 317 310 183 228 211 207 222
240 236 246 259 262 260 248 238 240 259 282 300 308 315 261 261 255 341 56 55 188 260 359 341 314 358 345 6 8 356 48 16 6 2 9 345 315 340 331 325 306 321 222 212 263 269 65
237 242 239 247 246 243 236 230 234 248 275 304 316 283 259 182 327 11 72 262 293 296 360 329 346 351 334 347 1 4 20 37 5 352 25 329 316 330 351 346 40 9 353 223 129 266 149
236 233 236 238 237 233 226 226 228 232 249 286 277 200 174 239 74 50 147 225 236 272 87 332 327 313 322 347 342 335 354 339 353 324 35 351 315 310 347 15 8 2 23 350 324 19 319
232 229 234 232 234 229 220 216 219 220 234 268 265 53 186 141 69 87 207 284 345 294 32 246 246 293 1 337 326 10 333 359 333 345 5 334 270 324 103 61 68 63 18 358 36 352 2
228 227 229 226 229 226 219 212 209 211 212 281 231 156 76 144 145 244 260 280 319 295 306 358 331 319 326 355 334 333 331 324 358 39 18 334 337 350 331 23 6 16 11 75 246 139 58
227 223 225 223 224 221 217 212 209 206 204 209 63 55 324 7 252 202 215 211 222 265 268 261 257 291 300 307 352 303 318 333 345 352 22 40 311 9 8 328 324 311 307 224 149 93 223
227 224 221 220 219 217 216 210 205 199 196 180 59 223 194 214 280 233 259 171 225 267 202 199 312 308 298 343 319 282 314 333 342 345 349 62 249 340 327 309 300 297 309 312 264 211 164
224 222 220 218 215 216 213 208 204 192 186 207 148 154 289 239 224 180 199 258 280 282 212 232 222 290 17 344 283 309 346 341 277 329 335 311 297 322 323 316 346 324 305 298 307 299 286
222 220 217 217 213 214 210 207 201 193 184 207 219 238 107 295 306 149 206 201 217 237 344 340 289 292 305 305 3 329 299 276 275 288 289 268 89 0 289 338 331 339 294 252 263 253 249
219 218 217 217 213 211 209 208 203 199 196 41 225 2 102 249 196 226 268 233 228 257 223 281 348 322 293 16 346 334 300 283 276 275 243 254 256 142 271 353 4 243 321 318 330 47 33
217 217 213 210 211 209 209 208 206 204 206 218 266 155 119 229 232 292 282 242 248 265 243 232 252 244 72 39 18 358 332 8 300 248 258 221 172 343 121 208 269 297 11 4 338 44 38
212 214 213 212 211 211 209 209 208 206 207 213 226 225 79 111 251 277 272 290 217 213 292 243 93 103 87 90 61 165 262 242 300 284 222 221 138 128 26 221 281 78 300 335 334 237 2
210 210 211 210 207 206 209 205 205 206 204 202 220 207 148 143 270 260 231 190 357 25 135 31 54 63 95 90 118 200 247 236 263 292 336 49 5 171 209 227 272 282 19 341 61 277 316
209 207 208 207 207 205 209 203 203 201 201 197 211 206 175 171 277 299 309 311 336 11 145 255 37 317 53 120 150 244 197 253 303 287 329 294 178 219 138 69 287 360 346 39 252 285 289
208 206 204 202 207 204 206 202 199 199 198 197 206 216 216 218 244 317 292 275 276 286 138 293 190 61 167 108 12 17 336 346 342 284 291 282 196 272 169 234 314 312 281 278 284 284 284